CCM38KL LFKB-LFMN

Flight info

Callsign CCM38KL
Flight time N/A
Altitude 14000
Route KERIT
Aircraft AT76/M-SDFGIRY/S

Departure

Time 2026-04-27 19:54
Airport Bastia-Poretta International airport (LFKB)

Arrival

Time N/A
Airport Nice-Côte d'Azur Airport (LFMN)
Time Latitude Longitude Altitude Speed Heading
2026-04-27 19:17 42.54737 9.48201 36 ft 0 kts 282°
2026-04-27 19:49 42.54756 9.48219 36 ft 13 kts 89°
2026-04-27 19:49 42.54778 9.48296 36 ft 8 kts 13°
2026-04-27 19:49 42.54834 9.48274 36 ft 9 kts 341°
2026-04-27 19:49 42.54901 9.48250 35 ft 11 kts 346°
2026-04-27 19:50 42.54976 9.48237 35 ft 12 kts 359°
2026-04-27 19:50 42.55049 9.48209 34 ft 11 kts 343°
2026-04-27 19:50 42.55125 9.48178 34 ft 12 kts 342°
2026-04-27 19:50 42.55204 9.48146 33 ft 12 kts 342°
2026-04-27 19:51 42.55285 9.48110 33 ft 12 kts 342°
2026-04-27 19:51 42.55368 9.48075 32 ft 13 kts 342°
2026-04-27 19:51 42.55453 9.48041 32 ft 13 kts 341°
2026-04-27 19:51 42.55538 9.48006 31 ft 13 kts 343°
2026-04-27 19:52 42.55621 9.47970 31 ft 12 kts 341°
2026-04-27 19:52 42.55704 9.47934 30 ft 13 kts 345°
2026-04-27 19:52 42.55787 9.47899 30 ft 13 kts 342°
2026-04-27 19:52 42.55870 9.47865 29 ft 13 kts 347°
2026-04-27 19:53 42.55967 9.48034 28 ft 14 kts 95°
2026-04-27 19:53 42.55823 9.48138 29 ft 50 kts 163°
2026-04-27 19:53 42.55306 9.48356 36 ft 104 kts 165°
2026-04-27 19:54 42.54478 9.48706 89 ft 140 kts 161°
2026-04-27 19:54 42.53542 9.49155 469 ft 145 kts 160°
2026-04-27 19:54 42.52627 9.49749 889 ft 146 kts 150°
2026-04-27 19:54 42.51756 9.50489 1305 ft 155 kts 148°
2026-04-27 19:55 42.50785 9.51337 1512 ft 177 kts 148°
2026-04-27 19:55 42.49675 9.52296 1719 ft 197 kts 148°
2026-04-27 19:55 42.48496 9.53301 2166 ft 202 kts 149°
2026-04-27 19:55 42.47302 9.54305 2628 ft 206 kts 150°
2026-04-27 19:56 42.46043 9.55350 2845 ft 222 kts 149°
2026-04-27 19:56 42.44675 9.56487 3017 ft 234 kts 149°
2026-04-27 19:56 42.43286 9.57678 3300 ft 237 kts 143°
2026-04-27 19:56 42.42363 9.59461 3612 ft 238 kts 108°
2026-04-27 19:57 42.42352 9.61665 3959 ft 237 kts 72°
2026-04-27 19:57 42.43259 9.63479 4306 ft 235 kts 38°
2026-04-27 19:57 42.44762 9.64270 4645 ft 234 kts
2026-04-27 19:57 42.46327 9.63755 4964 ft 235 kts 329°
2026-04-27 19:58 42.47408 9.62129 5267 ft 234 kts 300°
2026-04-27 19:58 42.48141 9.60172 5493 ft 236 kts 291°
2026-04-27 19:58 42.48227 9.57958 5749 ft 240 kts 256°
2026-04-27 19:58 42.47358 9.56058 6053 ft 239 kts 221°
2026-04-27 19:59 42.46337 9.54368 6305 ft 235 kts 246°
2026-04-27 19:59 42.45430 9.52547 6365 ft 242 kts 219°
2026-04-27 19:59 42.43959 9.51451 6571 ft 240 kts 212°
2026-04-27 19:59 42.42894 9.49732 6786 ft 243 kts 249°
2026-04-27 20:00 42.42504 9.47510 6974 ft 244 kts 268°
2026-04-27 20:00 42.42914 9.45297 7204 ft 246 kts 302°
2026-04-27 20:00 42.44137 9.43751 7439 ft 245 kts 329°
2026-04-27 20:00 42.45608 9.42554 7650 ft 247 kts 333°
2026-04-27 20:01 42.47162 9.41534 7888 ft 247 kts 339°
2026-04-27 20:01 42.48837 9.40963 8100 ft 249 kts 350°
2026-04-27 20:01 42.50552 9.40545 8358 ft 251 kts 352°
2026-04-27 20:01 42.52282 9.40164 8619 ft 251 kts 352°
2026-04-27 20:02 42.53892 9.39292 8788 ft 253 kts 324°
2026-04-27 20:02 42.55247 9.37755 8997 ft 255 kts 320°
2026-04-27 20:02 42.56581 9.36213 9232 ft 256 kts 321°
2026-04-27 20:02 42.57986 9.34706 9457 ft 257 kts 324°
2026-04-27 20:03 42.59443 9.33278 9694 ft 258 kts 326°
2026-04-27 20:03 42.60925 9.31882 9926 ft 259 kts 326°
2026-04-27 20:03 42.62414 9.30494 10131 ft 260 kts 327°